FW2543 Weather Reports


time (UTC)temp
C
wind
direction
speed
KPH
gust
KPH
rain 1hr
cm
rain 24hr
cm
rain mn
cm
humidity
%
barometer
mb
20260505130206 11 259 11.3 27.4 0.00 0.25 0.15 1 1014.2
20260505124705 11 283 16.1 27.4 0.00 0.25 0.15 1 1014.2
20260505124206 11 281 8.0 27.4 0.00 0.25 0.15 1 1014.2
20260505123707 11 228 17.7 27.4 0.00 0.25 0.15 1 1014.2
20260505123203 11 118 9.7 32.2 0.00 0.25 0.15 1 1014.2
20260505122702 11 244 16.1 33.8 0.00 0.25 0.15 1 1014.2
20260505122205 11 247 9.7 33.8 0.00 0.25 0.15 1 1014.2
20260505121706 11 247 20.9 32.2 0.00 0.25 0.15 1 1014.2
20260505121205 10 272 6.4 33.8 0.00 0.25 0.15 1 1014.2
20260505120705 10 255 17.7 33.8 0.00 0.25 0.15 1 1014.2
20260505120204 10 279 12.9 32.2 0.00 0.25 0.15 1 1014.0
20260505115706 10 0 14.5 29.0 0.00 0.25 0.15 1 1014.2
20260505115205 10 7 12.9 30.6 0.00 0.25 0.15 1 1014.2
20260505114947 10 0 17.7 30.6 0.00 0.25 0.15 1 1014.2
20260505114204 10 255 11.3 27.4 0.00 0.25 0.15 1 1014.2
20260505113703 10 0 11.3 27.4 0.00 0.25 0.15 1 1014.0
20260505113203 10 251 14.5 27.4 0.00 0.25 0.15 1 1014.2
20260505112947 10 237 14.5 25.7 0.00 0.25 0.15 1 1014.4
20260505112451 10 251 9.7 25.7 0.00 0.25 0.15 1 1014.4
20260505111702 10 0 17.7 27.4 0.00 0.25 0.15 1 1014.3
20260505111203 10 252 14.5 27.4 0.00 0.25 0.15 1 1014.3
20260505110702 10 264 17.7 25.7 0.00 0.25 0.15 1 1014.2
20260505110203 10 268 11.3 33.8 0.00 0.25 0.15 1 1014.3
20260505102201 10 283 8.0 24.1 0.03 0.25 0.15 1 1014.3
20260505101702 10 255 9.7 24.1 0.03 0.25 0.15 1 1014.2
20260505101201 10 266 8.0 19.3 0.03 0.25 0.15 1 1014.3
20260505100700 10 0 8.0 24.1 0.03 0.25 0.15 1 1014.4
20260505100201 10 0 12.9 24.1 0.03 0.25 0.15 1 1014.5
20260505095702 10 255 8.0 20.9 0.03 0.23 0.15 1 1014.5
20260505095200 10 257 9.7 25.7 0.03 0.23 0.15 1 1014.4
20260505094944 10 258 9.7 25.7 0.03 0.23 0.15 1 1014.5
20260505094200 10 326 6.4 19.3 0.03 0.23 0.15 1 1014.5
20260505093700 10 96 6.4 22.5 0.03 0.23 0.15 1 1014.5
20260505093201 11 52 9.7 25.7 0.00 0.23 0.13 1 1014.6
20260505092700 11 209 9.7 25.7 0.03 0.23 0.13 1 1014.6
20260505092235 11 0 9.7 25.7 0.03 0.23 0.13 1 1014.8
20260505092222 11 265 14.5 25.7 0.03 0.23 0.13 1 1014.7
20260505091445 11 0 8.0 25.7 0.03 0.23 0.13 1 1015.0
20260505090659 11 343 9.7 25.7 0.05 0.23 0.13 1 1015.0
20260505090200 11 0 9.7 25.7 0.05 0.23 0.13 1 1014.9
20260505085700 11 0 9.7 20.9 0.08 0.18 0.13 1 1014.9
20260505085159 11 104 4.8 24.1 0.08 0.18 0.13 1 1015.0
20260505084700 11 271 11.3 24.1 0.10 0.18 0.13 1 1015.0
20260505084159 11 4 6.4 19.3 0.10 0.18 0.13 1 1014.9
20260505083658 10 259 4.8 24.1 0.10 0.18 0.13 1 1015.0
20260505083159 10 244 6.4 25.7 0.10 0.18 0.13 1 1015.0
20260505082658 10 233 12.9 25.7 0.08 0.18 0.10 1 1014.9
20260505082158 10 323 6.4 25.7 0.08 0.18 0.10 1 1014.9
20260505081658 10 47 6.4 27.4 0.10 0.18 0.10 1 1015.0
20260505081158 10 278 14.5 27.4 0.10 0.18 0.10 1 1015.1
20260505080659 10 151 9.7 22.5 0.08 0.18 0.08 1 1015.1
20260505080229 10 288 11.3 22.5 0.05 0.10 0.05 1 1015.4
20260505080217 10 11 8.0 17.7 0.08 0.18 0.08 1 1015.2
20260505075157 10 234 4.8 25.7 0.05 0.10 0.05 1 1015.4
20260505074658 10 250 11.3 25.7 0.03 0.10 0.03 1 1015.2
20260505074159 10 245 16.1 25.7 0.03 0.10 0.03 1 1015.1
20260505073658 10 243 11.3 22.5 0.03 0.10 0.03 1 1015.2
20260505073157 10 226 8.0 20.9 0.03 0.10 0.03 1 1015.3
20260505072657 10 278 6.4 22.5 0.03 0.10 0.03 1 1015.6
20260505072442 10 155 4.8 22.5 0.03 0.10 0.03 1 1015.6
20260505071658 10 290 6.4 24.1 0.00 0.10 0.00 1 1015.7
20260505071158 10 316 11.3 24.1 0.03 0.10 0.00 1 1015.6
20260505070656 10 8 8.0 24.1 0.03 0.10 0.00 1 1015.4
20260505070157 10 271 8.0 24.1 0.03 0.10 0.00 1 1015.4
20260505065658 10 0 4.8 24.1 0.03 0.08 0.10 1 1015.3
20260505065445 10 282 8.0 24.1 0.03 0.08 0.10 1 1015.3
20260505064656 10 271 6.4 22.5 0.03 0.08 0.10 1 1015.2
20260505064156 10 283 11.3 22.5 0.03 0.08 0.10 1 1015.1
20260505063656 10 276 9.7 25.7 0.05 0.08 0.10 1 1015.1
20260505063155 10 140 8.0 25.7 0.05 0.08 0.10 1 1014.9
20260505062657 10 302 9.7 30.6 0.05 0.08 0.10 1 1014.8
20260505062155 10 282 11.3 30.6 0.05 0.08 0.10 1 1015.0
20260505061655 10 272 11.3 29.0 0.05 0.08 0.10 1 1015.0
20260505061157 10 44 12.9 29.0 0.05 0.08 0.08 1 1015.0
20260505060939 10 265 9.7 32.2 0.05 0.08 0.08 1 1015.1
20260505060436 10 0 11.3 32.2 0.05 0.08 0.08 1 1015.2
20260505055656 10 118 12.9 25.7 0.05 0.03 0.08 1 1015.3
20260505055156 10 42 6.4 24.1 0.08 0.03 0.08 1 1015.2
20260505054655 10 272 8.0 29.0 0.08 0.03 0.08 1 1015.2
20260505054155 10 279 14.5 29.0 0.08 0.03 0.05 1 1015.2
20260505053655 10 299 12.9 25.7 0.05 0.03 0.05 1 1015.1
20260505053154 10 20 6.4 19.3 0.05 0.03 0.05 1 1015.2
20260505052937 11 202 6.4 22.5 0.05 0.03 0.05 1 1015.1
20260505052155 11 235 11.3 22.5 0.05 0.03 0.05 1 1015.1
20260505051939 11 268 8.0 20.9 0.05 0.03 0.05 1 1015.2
20260505051154 11 227 8.0 17.7 0.03 0.03 0.03 1 1015.2
20260505050654 11 241 6.4 17.7 0.03 0.03 0.03 1 1015.3
20260505050153 11 251 6.4 17.7 0.03 0.03 0.03 1 1015.4
20260505041153 11 18 8.0 25.7 0.00 0.00 0.00 1 1015.4
20260505040655 11 306 6.4 32.2 0.00 0.00 0.00 1 1015.3
20260505040153 11 275 14.5 33.8 0.00 0.00 0.00 1 1015.1
20260505035654 11 341 17.7 37.0 0.00 0.00 0.00 1 1015.0
20260505035154 11 151 11.3 37.0 0.00 0.00 0.00 1 1014.9
20260505034655 11 0 11.3 37.0 0.00 0.00 0.00 1 1014.8
20260505034153 11 307 16.1 37.0 0.00 0.00 0.00 1 1014.7
20260505033655 11 269 17.7 35.4 0.00 0.00 0.00 1 1014.6
20260505033154 11 0 14.5 35.4 0.00 0.00 0.00 1 1014.7
20260505032653 11 250 17.7 32.2 0.00 0.00 0.00 1 1014.6
20260505032154 11 317 12.9 29.0 0.00 0.00 0.00 1 1014.6
20260505031652 12 255 6.4 25.7 0.00 0.00 0.00 1 1014.5
20260505031153 12 240 11.3 27.4 0.00 0.00 0.00 1 1014.5
20260505030652 12 317 4.8 29.0 0.00 0.00 0.00 1 1014.4
20260505030153 12 338 12.9 29.0 0.00 0.00 0.00 1 1014.4
20260505025652 12 0 4.8 22.5 0.00 0.00 0.00 1 1014.4
20260505025230 12 268 11.3 24.1 0.00 0.00 0.00 1 1014.5
20260505025218 12 265 8.0 24.1 0.00 0.00 0.00 1 1014.5
20260505024434 12 213 6.4 24.1 0.00 0.00 0.00 1 1014.5
20260505023939 12 299 9.7 29.0 0.00 0.00 0.00 1 1014.6
20260505023151 12 0 8.0 29.0 0.00 0.00 0.00 1 1014.5
20260505022651 12 6 12.9 33.8 0.00 0.00 0.00 1 1014.4
20260505022436 12 37 11.3 33.8 0.00 0.00 0.00 1 1014.3
20260505021652 12 7 9.7 37.0 0.00 0.00 0.00 1 1014.3
20260505021436 12 241 11.3 37.0 0.00 0.00 0.00 1 1014.3
20260505020652 12 197 9.7 35.4 0.00 0.00 0.00 1 1014.3
20260505020152 12 28 9.7 25.7 0.00 0.00 0.00 1 1014.4
20260505015731 12 296 8.0 33.8 0.00 0.00 0.00 1 1014.5
20260505015717 12 272 6.4 33.8 0.00 0.00 0.00 1 1014.5
20260505014938 12 276 11.3 37.0 0.00 0.00 0.00 1 1014.6
20260505014150 12 288 14.5 37.0 0.00 0.00 0.00 1 1014.6
20260505013936 12 281 17.7 38.6 0.00 0.00 0.00 1 1014.7
20260505013433 12 303 11.3 38.6 0.00 0.00 0.00 1 1014.7
20260505012651 12 0 17.7 37.0 0.00 0.00 0.00 1 1014.8
20260505012150 12 0 19.3 38.6 0.00 0.00 0.00 1 1014.8
20260505011651 12 1 9.7 38.6 0.00 0.00 0.00 1 1014.7
20260505011150 12 0 9.7 29.0 0.00 0.00 0.00 1 1014.8
20260505010650 13 295 11.3 29.0 0.00 0.00 0.00 1 1014.9
20260505010151 13 155 9.7 33.8 0.00 0.00 0.00 1 1014.8
20260505005649 13 0 17.7 33.8 0.00 0.00 0.00 1 1014.9
20260505005149 13 0 12.9 30.6 0.00 0.00 0.00 1 1014.9
20260505004649 13 30 12.9 29.0 0.00 0.00 0.00 1 1014.9
20260505004432 13 259 9.7 33.8 0.00 0.00 0.00 1 1015.0
20260505003647 13 34 9.7 33.8 0.00 0.00 0.00 1 1015.1
20260505003150 13 316 9.7 29.0 0.00 0.00 0.00 1 1015.0
20260505002650 13 226 12.9 29.0 0.00 0.00 0.00 1 1015.1
20260505002432 13 282 11.3 29.0 0.00 0.00 0.00 1 1015.1
20260505001648 13 261 12.9 33.8 0.00 0.00 0.00 1 1015.3
20260505001148 13 248 19.3 33.8 0.00 0.00 0.00 1 1015.2
20260505000650 13 271 16.1 43.5 0.00 0.00 0.00 1 1015.2
20260505000149 13 25 20.9 43.5 0.00 0.00 0.00 1 1015.0
20260504235649 13 266 12.9 32.2 0.00 0.00 0.00 1 1015.1
20260504235147 13 357 12.9 37.0 0.00 0.00 0.00 1 1015.1
20260504234649 13 133 8.0 37.0 0.00 0.00 0.00 1 1015.0
20260504234148 13 240 14.5 43.5 0.00 0.00 0.00 1 1015.1
20260504233648 13 240 20.9 43.5 0.00 0.00 0.00 1 1014.9
20260504233149 13 0 19.3 37.0 0.00 0.00 0.00 1 1015.1
20260504232648 13 0 9.7 35.4 0.00 0.00 0.00 1 1015.0
20260504232147 13 6 9.7 35.4 0.00 0.00 0.00 1 1015.0
20260504231647 13 114 11.3 72.4 0.00 0.00 0.00 1 1015.1
20260504231146 13 230 20.9 72.4 0.00 0.00 0.00 1 1014.9
20260504230647 13 247 11.3 37.0 0.00 0.00 0.00 1 1015.2
20260504230146 13 272 12.9 37.0 0.00 0.00 0.00 1 1015.1
20260504225648 13 0 11.3 33.8 0.00 0.00 0.00 1 1015.0
20260504225147 13 326 12.9 33.8 0.00 0.00 0.00 1 1015.2
20260504224646 13 4 6.4 37.0 0.00 0.00 0.00 1 1015.3
20260504224146 13 169 22.5 37.0 0.00 0.00 0.00 1 1015.3
20260504223647 13 251 17.7 30.6 0.00 0.00 0.00 1 1015.1
20260504223147 14 254 12.9 30.6 0.00 0.00 0.00 1 1015.3
20260504222928 14 248 9.7 37.0 0.00 0.00 0.00 1 1015.3
20260504222147 14 251 16.1 37.0 0.00 0.00 0.00 1 1015.4
20260504221647 14 282 12.9 33.8 0.00 0.00 0.00 1 1015.4
20260504221145 14 24 14.5 35.4 0.00 0.00 0.00 1 1015.3
20260504220646 14 289 17.7 38.6 0.00 0.00 0.00 1 1015.6
20260504220146 14 334 20.9 38.6 0.00 0.00 0.00 1 1015.4
20260504215647 15 290 11.3 35.4 0.00 0.00 0.00 1 1015.4
20260504215145 15 255 16.1 35.4 0.00 0.00 0.00 1 1015.4
20260504214932 15 54 9.7 38.6 0.00 0.00 0.00 1 1015.4
20260504214146 15 251 11.3 38.6 0.00 0.00 0.00 1 1015.4
20260504213644 15 223 19.3 33.8 0.00 0.00 0.00 1 1015.5
20260504213144 15 186 11.3 30.6 0.00 0.00 0.00 1 1015.3
20260504212646 15 269 6.4 30.6 0.00 0.00 0.00 1 1015.4
20260504212144 15 261 9.7 27.4 0.00 0.00 0.00 1 1015.5
20260504211645 15 56 12.9 32.2 0.00 0.00 0.00 1 1015.4
20260504211427 15 269 8.0 32.2 0.00 0.00 0.00 1 1015.6
20260504210645 15 219 12.9 38.6 0.00 0.00 0.00 1 1015.5
20260504210429 15 237 22.5 38.6 0.00 0.00 0.00 1 1015.5
20260504205645 15 240 14.5 27.4 0.00 0.00 0.00 1 1015.5
20260504205144 15 313 9.7 22.5 0.00 0.00 0.00 1 1015.6
20260504204644 15 302 9.7 29.0 0.00 0.00 0.00 1 1015.5
20260504204429 15 264 19.3 30.6 0.00 0.00 0.00 1 1015.5
20260504203919 15 82 8.0 41.8 0.00 0.00 0.00 1 1015.5
20260504203145 15 240 12.9 41.8 0.00 0.00 0.00 1 1015.5
20260504202645 15 0 22.5 33.8 0.00 0.00 0.00 1 1015.5
20260504202144 16 138 6.4 32.2 0.00 0.00 0.00 1 1015.3
20260504201644 16 265 17.7 32.2 0.00 0.00 0.00 1 1015.4
20260504201144 16 250 16.1 32.2 0.00 0.00 0.00 1 1015.4
20260504200643 16 221 9.7 30.6 0.00 0.00 0.00 1 1015.4
20260504200143 16 13 11.3 29.0 0.00 0.00 0.00 1 1015.5
20260504195643 16 186 11.3 30.6 0.00 0.00 0.00 1 1015.5
20260504195142 15 336 12.9 30.6 0.00 0.00 0.00 1 1015.5
20260504194927 15 0 9.7 24.1 0.00 0.00 0.00 1 1015.5
20260504194143 15 118 4.8 32.2 0.00 0.00 0.00 1 1015.5
20260504193643 15 145 16.1 33.8 0.00 0.00 0.00 1 1015.6
20260504193142 15 283 9.7 33.8 0.00 0.00 0.00 1 1015.5
20260504192643 15 278 9.7 29.0 0.00 0.00 0.00 1 1015.5
20260504192141 15 266 8.0 29.0 0.00 0.00 0.00 1 1015.4
20260504191641 15 258 16.1 27.4 0.00 0.00 0.00 1 1015.6
20260504191141 15 307 9.7 27.4 0.00 0.00 0.00 1 1015.6
20260504190927 14 321 9.7 27.4 0.00 0.00 0.00 1 1015.6
20260504190141 15 259 14.5 25.7 0.00 0.00 0.00 1 1015.6
20260504185642 14 281 6.4 29.0 0.00 0.00 0.00 1 1015.6
20260504185143 15 268 19.3 29.0 0.00 0.00 0.00 1 1015.7
20260504184641 15 261 12.9 29.0 0.00 0.00 0.00 1 1015.6
20260504184142 15 281 14.5 25.7 0.00 0.00 0.00 1 1015.6
20260504183642 15 271 14.5 25.7 0.00 0.00 0.00 1 1015.6
20260504183141 15 96 4.8 25.7 0.00 0.00 0.00 1 1015.5
20260504182641 15 355 8.0 29.0 0.00 0.00 0.00 1 1015.5
20260504182142 15 344 9.7 29.0 0.00 0.00 0.00 1 1015.6
20260504181640 15 31 9.7 32.2 0.00 0.00 0.00 1 1015.5
20260504181140 15 258 8.0 32.2 0.00 0.00 0.00 1 1015.6
20260504180640 15 299 8.0 25.7 0.00 0.00 0.00 1 1015.6
20260504180140 15 233 8.0 27.4 0.00 0.00 0.00 1 1015.5
20260504175641 15 197 16.1 27.4 0.00 0.00 0.00 1 1015.4
20260504175139 15 345 6.4 24.1 0.00 0.00 0.00 1 1015.3
20260504174639 15 255 12.9 24.1 0.00 0.00 0.00 1 1015.4
20260504174140 15 292 4.8 19.3 0.00 0.00 0.00 1 1015.3
20260504173641 15 271 8.0 29.0 0.00 0.00 0.00 1 1015.2
20260504173139 15 197 9.7 29.0 0.00 0.00 0.00 1 1015.2
20260504172641 15 313 8.0 25.7 0.00 0.00 0.00 1 1015.1
20260504172140 15 344 11.3 25.7 0.00 0.00 0.00 1 1015.1
20260504171639 15 283 11.3 24.1 0.00 0.00 0.00 1 1015.1
20260504171139 15 271 8.0 30.6 0.00 0.00 0.00 1 1015.1
20260504170640 15 268 11.3 30.6 0.00 0.00 0.00 1 1014.9
20260504170216 15 299 6.4 22.5 0.00 0.00 0.00 1 1014.9
20260504170206 15 252 4.8 20.9 0.00 0.00 0.00 1 1014.9
20260504160425 12 243 12.9 20.9 0.00 0.00 0.00 1 1015.1
20260504151135 12 255 3.2 11.3 0.00 0.00 0.00 1 1014.8
20260504150636 12 298 3.2 8.0 0.00 0.00 0.00 1 1014.7
20260504150136 12 230 3.2 6.4 0.00 0.00 0.00 1 1014.7
20260504141134 11 0 4.8 16.1 0.00 0.00 0.00 1 1014.7
20260504140634 11 272 6.4 14.5 0.00 0.00 0.00 1 1014.6
20260504140133 11 0 6.4 11.3 0.00 0.00 0.00 1 1014.6